TimeEDT,TemperatureF,Dew PointF,Humidity,Sea Level PressureIn,VisibilityMPH,Wind Direction,Wind SpeedMPH,Gust SpeedMPH,PrecipitationIn,Events,Conditions,WindDirDegrees,DateUTC
12:53 AM,84.0,75.9,76,30.05,10.0,Calm,Calm,-,N/A,,Partly Cloudy,0,2013-08-03 04:53:00
1:53 AM,82.0,77.0,85,30.05,10.0,East,3.5,-,N/A,,Scattered Clouds,80,2013-08-03 05:53:00
2:53 AM,81.0,75.9,85,30.04,10.0,SSE,3.5,-,N/A,,Mostly Cloudy,150,2013-08-03 06:53:00
3:53 AM,81.0,77.0,88,30.03,10.0,ESE,3.5,-,N/A,,Partly Cloudy,110,2013-08-03 07:53:00
4:53 AM,80.1,78.1,94,30.03,10.0,Calm,Calm,-,N/A,,Clear,0,2013-08-03 08:53:00
5:53 AM,80.1,77.0,90,30.03,10.0,Calm,Calm,-,N/A,,Clear,0,2013-08-03 09:53:00
6:53 AM,78.1,77.0,96,30.05,9.0,ENE,3.5,-,N/A,,Partly Cloudy,70,2013-08-03 10:53:00
7:53 AM,80.1,77.0,90,30.06,7.0,Calm,Calm,-,N/A,,Partly Cloudy,0,2013-08-03 11:53:00
8:53 AM,84.0,78.1,82,30.08,9.0,SE,3.5,-,N/A,,Partly Cloudy,130,2013-08-03 12:53:00
9:53 AM,86.0,77.0,74,30.08,10.0,Calm,Calm,-,N/A,,Mostly Cloudy,0,2013-08-03 13:53:00
10:53 AM,86.0,75.0,70,30.09,10.0,SSE,3.5,-,N/A,Thunderstorm,Scattered Clouds,150,2013-08-03 14:53:00
11:36 AM,84.2,75.2,74,30.10,10.0,Calm,Calm,-,N/A,,Partly Cloudy,0,2013-08-03 15:36:00
11:53 AM,84.9,75.9,74,30.10,10.0,Calm,Calm,-,N/A,,Partly Cloudy,0,2013-08-03 15:53:00
12:13 PM,86.0,78.8,79,30.10,9.0,SW,8.1,-,N/A,Thunderstorm,Clear,230,2013-08-03 16:13:00
12:29 PM,86.0,78.8,79,30.10,9.0,SW,9.2,-,N/A,,Clear,220,2013-08-03 16:29:00
12:36 PM,87.8,78.8,75,30.10,9.0,SW,8.1,-,N/A,Thunderstorm,Clear,230,2013-08-03 16:36:00
12:53 PM,86.0,78.1,77,30.10,9.0,SW,10.4,-,N/A,Thunderstorm,Scattered Clouds,220,2013-08-03 16:53:00
1:42 PM,82.4,75.2,79,30.11,8.0,SSW,5.8,-,0.00,,Mostly Cloudy,210,2013-08-03 17:42:00
1:53 PM,82.9,75.0,77,30.10,9.0,SSW,4.6,-,0.00,,Scattered Clouds,210,2013-08-03 17:53:00
2:53 PM,82.9,73.9,74,30.10,10.0,East,3.5,-,N/A,,Clear,100,2013-08-03 18:53:00
3:53 PM,82.0,75.9,82,30.09,10.0,ESE,6.9,-,N/A,,Scattered Clouds,110,2013-08-03 19:53:00
4:27 PM,82.4,75.2,79,30.10,10.0,SSE,8.1,-,N/A,Thunderstorm,Scattered Clouds,150,2013-08-03 20:27:00
4:42 PM,82.4,75.2,79,30.10,10.0,SE,9.2,-,N/A,,Partly Cloudy,130,2013-08-03 20:42:00
4:53 PM,82.0,75.0,79,30.10,10.0,SE,9.2,-,N/A,,Partly Cloudy,130,2013-08-03 20:53:00
5:11 PM,82.4,75.2,79,30.10,10.0,SE,9.2,-,N/A,Thunderstorm,Thunderstorm,140,2013-08-03 21:11:00
5:53 PM,82.0,72.0,71,30.09,10.0,SE,4.6,-,N/A,Thunderstorm,Clear,140,2013-08-03 21:53:00
6:04 PM,82.4,73.4,74,30.09,10.0,Calm,Calm,-,N/A,,Clear,0,2013-08-03 22:04:00
6:53 PM,82.0,75.0,79,30.08,10.0,Calm,Calm,-,N/A,,Clear,0,2013-08-03 22:53:00
7:53 PM,82.0,75.0,79,30.09,10.0,ENE,3.5,-,N/A,,Clear,60,2013-08-03 23:53:00
8:53 PM,80.1,75.9,87,30.09,10.0,East,4.6,-,N/A,,Clear,100,2013-08-04 00:53:00
9:53 PM,79.0,77.0,94,30.11,9.0,Calm,Calm,-,N/A,,Clear,0,2013-08-04 01:53:00
10:53 PM,79.0,77.0,94,30.12,9.0,East,3.5,-,N/A,,Partly Cloudy,80,2013-08-04 02:53:00
11:53 PM,79.0,77.0,94,30.12,9.0,ESE,3.5,-,N/A,,Clear,120,2013-08-04 03:53:00